This demonstration page uses our WeatherBlox Daily Observations layout. Learn more.

Hourly Observations for October 21, 2020

Temp ( °F °C ) Dew Point ( °F °C ) Humidity (%) Winds ( mph kmh ) Pressure ( in mb ) Visibility ( mi km ) Precip ( " mm )
12:15 am 00:15 Clear 43 6.3 37 2.5 77 77 N 5 7 30.17 1022 10 16.0934 0 0
12:35 am 00:35 Clear 43 6.1 37 2.6 79 79 NNE 9 15 30.16 1021 10 16.0934 0 0
12:55 am 00:55 Clear 46 7.7 38 3.6 76 76 NNE 10 17 30.12 1020 10 16.0934 0 0
1:15 am 01:15 Clear 47 8.3 39 3.7 73 73 NNE 8 13 30.12 1020 10 16.0934 0 0
1:35 am 01:35 Clear 45 7.3 38 3.3 76 76 NE 7 11 30.12 1020 10 16.0934 0 0
4:15 am 04:15 Clear 41 4.8 37 2.6 86 86 Calm 30.18 1022 10 16.09 0 0
4:35 am 04:35 Clear 40 4.6 36 2.5 86 86 ENE 7 11 30.17 1022 10 16.09 0 0
4:55 am 04:55 Clear 42 5.5 38 3.3 86 86 NE 7 11 30.14 1021 10 16.09 0 0
5:15 am 05:15 Partly Cloudy 42 5.7 38 3.2 84 84 ENE 7 11 30.13 1020 10 16.09 0 0
6:35 am 06:35 Mostly Cloudy 42 5.3 38 3.1 86 86 E 8 13 30.14 1020 10 16.0934 0 0
6:55 am 06:55 Mostly Cloudy 40 4.7 37 2.8 88 88 ENE 7 11 30.14 1021 10 16.0934 0 0
7:15 am 07:15 Mostly Cloudy 40 4.5 37 2.7 88 88 E 5 7 30.15 1021 10 16.0934 0 0
7:35 am 07:35 Partly Cloudy 39 3.8 36 2.3 90 90 ESE 9 15 30.15 1021 10 16.0934 0 0
7:55 am 07:55 Clear 38 3.5 36 2.1 91 91 ESE 7 11 30.15 1021 10 16.0934 0 0
8:15 am 08:15 Sunny 38 3.5 36 2.3 92 92 ESE 9 15 30.14 1021 10 16.0934 0 0
8:35 am 08:35 Sunny 39 3.8 37 2.6 92 92 E 6 9 30.15 1021 10 16.0934 0 0
8:55 am 08:55 Sunny 39 4.1 37 3 93 93 E 8 13 30.14 1021 10 16.0934 0 0
9:15 am 09:15 Sunny 41 5.1 38 3.5 90 90 E 10 17 30.14 1021 10 16.0934 0 0
9:35 am 09:35 Sunny 43 6 38 3.6 85 85 ESE 10 17 30.14 1021 10 16.0934 0 0
9:55 am 09:55 Partly Cloudy 44 6.5 39 3.7 83 83 ESE 10 17 30.13 1020 10 16.0934 0 0
10:15 am 10:15 Partly Cloudy 45 7.2 39 3.8 79 79 ESE 9 15 30.13 1020 10 16.0934 0 0
10:35 am 10:35 Mostly Cloudy 46 8 39 4 76 76 ESE 12 19 30.11 1020 10 16.0934 0 0
10:55 am 10:55 Cloudy 48 9 39 4 71 71 ESE 16 26 30.1 1019 10 16.0934 0 0
11:15 am 11:15 Cloudy 49 9.5 39 4 69 69 SE 14 22 30.1 1019 10 16.0934 0 0
11:35 am 11:35 Cloudy 49 9.6 39 4.1 69 69 SE 14 22 30.1 1019 10 16.0934 0 0
11:55 am 11:55 Cloudy 48 9.1 39 4 71 71 SE 14 22 30.09 1019 10 16.0934 0 0
12:15 pm 12:15 Cloudy 48 9.1 39 4 71 71 SE 16 26 30.08 1019 10 16.0934 0 0
12:35 pm 12:35 Cloudy 48 9.1 39 4.1 71 71 SE 15 24 30.08 1019 10 16.0934 0 0
12:55 pm 12:55 Cloudy 49 9.2 39 4.1 71 71 SE 12 19 30.06 1018 10 16.0934 0 0
1:15 pm 13:15 Cloudy 49 9.3 40 4.2 71 71 SE 14 22 30.05 1018 10 16.0934 0 0
1:35 pm 13:35 Cloudy 49 9.5 40 4.5 71 71 SE 13 20 30.04 1017 10 16.0934 0 0
1:55 pm 13:55 Cloudy 49 9.5 40 4.5 71 71 SE 12 19 30.03 1017 10 16.0934 0 0
2:15 pm 14:15 Cloudy 49 9.5 40 4.6 72 72 SE 14 22 30.01 1016 10 16.0934 0 0
2:35 pm 14:35 Cloudy 49 9.3 41 4.8 74 74 SE 15 24 30 1016 10 16.0934 0 0
2:55 pm 14:55 Cloudy 48 9.1 41 5.1 76 76 SSE 14 22 29.99 1016 10 16.0934 0 0
3:15 pm 15:15 Cloudy 48 8.8 41 5.2 78 78 SE 14 22 29.98 1015 10 16.0934 0 0
3:35 pm 15:35 Cloudy 47 8.4 41 5.2 80 80 SE 15 24 29.98 1015 10 16.0934 0 0
3:55 pm 15:55 Cloudy 47 8.3 42 5.5 83 83 SE 13 20 29.96 1014 10 16.0934 0 0
4:15 pm 16:15 Cloudy 47 8.1 42 5.5 84 84 SE 10 17 29.96 1015 10 16.0934 0 0
4:35 pm 16:35 Cloudy 47 8.1 42 5.5 84 84 SE 10 17 29.97 1015 10 16.0934 0 0
4:55 pm 16:55 Cloudy 47 8.2 42 5.8 85 85 SE 10 17 29.98 1015 10 16.0934 0 0
5:15 pm 17:15 Cloudy 47 8.2 43 5.9 86 86 SE 10 17 29.97 1015 10 16.0934 0 0
5:35 pm 17:35 Cloudy 46 8 43 6 87 87 SE 12 19 29.97 1015 10 16.0934 0 0
5:55 pm 17:55 Cloudy 46 7.7 43 6 89 89 ESE 10 17 29.97 1015 7 11.26538 0 0
6:15 pm 18:15 Cloudy 46 7.6 43 6 90 90 SE 12 19 29.96 1015 7 11.26538 0 0
6:35 pm 18:35 Cloudy with Mist and Fog 46 7.6 43 6.3 92 92 SE 10 17 29.97 1015 3 4.82802 0 0
6:55 pm 18:55 Cloudy with Mist and Fog 46 7.5 44 6.5 93 93 SE 10 17 29.98 1015 2.5 4.02335 0 0
7:15 pm 19:15 Cloudy with Mist and Fog 45 7.3 44 6.6 95 95 ESE 12 19 29.98 1015 2.5 4.02335 0 0
7:35 pm 19:35 Cloudy with Mist and Fog 45 7.3 44 6.6 95 95 SE 8 13 29.98 1015 2 3.21868 0 0
7:55 pm 19:55 Cloudy with Mist and Fog 45 7.3 44 6.7 96 96 ESE 7 11 29.99 1015 1.75 2.816345 0 0
8:15 pm 20:15 Cloudy with Mist and Fog 45 7.3 44 6.7 96 96 ESE 8 13 29.99 1015 2 3.21868 0 0
8:35 pm 20:35 Cloudy with Mist and Fog 45 7.3 44 6.8 97 97 ESE 8 13 29.99 1015 2 3.21868 0 0
8:55 pm 20:55 Cloudy with Mist and Fog 45 7.3 44 6.8 97 97 ESE 10 17 29.98 1015 2 3.21868 0 0
9:15 pm 21:15 Cloudy with Mist and Fog 45 7.2 44 6.7 97 97 E 9 15 29.96 1014 2.5 4.02335 0 0
9:35 pm 21:35 Cloudy with Mist and Fog 45 7 44 6.5 97 97 ESE 12 19 29.96 1015 4 6.43736 0 0
9:55 pm 21:55 Cloudy with Mist and Fog 45 7 44 6.5 97 97 E 10 17 29.96 1015 4 6.43736 0 0
10:15 pm 22:15 Cloudy with Mist and Fog 44 6.9 44 6.4 97 97 E 13 20 29.96 1015 3 4.82802 0 0
10:35 pm 22:35 Cloudy with Mist and Fog 44 6.8 43 6.3 97 97 ESE 13 20 29.96 1015 4 6.43736 0 0
10:55 pm 22:55 Cloudy with Mist and Fog 44 6.8 43 6.3 97 97 ESE 12 19 29.95 1014 1.25 2.011675 0 0
11:15 pm 23:15 Cloudy with Mist and Fog 44 6.7 43 6.3 97 97 ESE 13 20 29.95 1014 1 1.60934 0 0
11:35 pm 23:35 Cloudy with Mist and Fog 44 6.7 43 6.3 97 97 ESE 12 19 29.94 1014 0.75 1.207005 0 0
11:55 pm 23:55 Cloudy with Fog 44 6.7 43 6.3 97 97 E 14 22 29.93 1014 0.5 0.80467 0 0

Powered by AerisWeather